| time (UTC) | temp C | wind direction | speed KPH | gust KPH | rain 1hr cm | rain 24hr cm | rain mn cm | humidity % | barometer mb |
| 20260505140530 | 15 | 92 | 3.2 | 12.9 | 0.00 | 0.00 | 0.00 | 96 | 1006.7 |
| 20260505125030 | 14 | 14 | 3.2 | 8.0 | 0.00 | 0.00 | 0.00 | 97 | 1006.2 |
| 20260505124531 | 14 | 22 | 3.2 | 6.4 | 0.00 | 0.00 | 0.00 | 97 | 1006.3 |
| 20260505124029 | 14 | 27 | 3.2 | 4.8 | 0.00 | 0.00 | 0.00 | 97 | 1006.1 |
| 20260505123530 | 14 | 26 | 3.2 | 6.4 | 0.00 | 0.00 | 0.00 | 97 | 1006.0 |
| 20260505123030 | 14 | 4 | 1.6 | 4.8 | 0.00 | 0.00 | 0.00 | 97 | 1006.1 |
| 20260505122528 | 14 | 29 | 3.2 | 4.8 | 0.00 | 0.00 | 0.00 | 97 | 1005.9 |
| 20260505122028 | 14 | 25 | 3.2 | 4.8 | 0.00 | 0.00 | 0.00 | 97 | 1006.0 |
| 20260505121528 | 14 | 28 | 3.2 | 4.8 | 0.00 | 0.00 | 0.00 | 97 | 1005.8 |
| 20260505121031 | 14 | 18 | 3.2 | 6.4 | 0.00 | 0.00 | 0.00 | 97 | 1006.0 |
| 20260505120532 | 14 | 19 | 3.2 | 6.4 | 0.00 | 0.00 | 0.00 | 97 | 1005.9 |
| 20260505120032 | 14 | 24 | 3.2 | 4.8 | 0.00 | 0.00 | 0.00 | 96 | 1006.0 |
| 20260505115529 | 14 | 31 | 1.6 | 4.8 | 0.00 | 0.00 | 0.00 | 96 | 1005.9 |
| 20260505115029 | 14 | 336 | 3.2 | 4.8 | 0.00 | 0.00 | 0.00 | 96 | 1006.0 |
| 20260505114530 | 14 | 5 | 1.6 | 6.4 | 0.00 | 0.00 | 0.00 | 96 | 1005.8 |
| 20260505114030 | 14 | 305 | 3.2 | 11.3 | 0.00 | 0.00 | 0.00 | 96 | 1005.3 |
| 20260505113529 | 14 | 7 | 1.6 | 6.4 | 0.00 | 0.00 | 0.00 | 96 | 1005.6 |
| 20260505113031 | 14 | 162 | 1.6 | 11.3 | 0.00 | 0.00 | 0.00 | 96 | 1005.1 |
| 20260505112531 | 14 | 165 | 6.4 | 9.7 | 0.00 | 0.00 | 0.00 | 96 | 1004.9 |
| 20260505112028 | 14 | 164 | 6.4 | 12.9 | 0.00 | 0.00 | 0.00 | 96 | 1005.0 |
| 20260505111530 | 14 | 168 | 6.4 | 11.3 | 0.00 | 0.00 | 0.00 | 96 | 1004.9 |
| 20260505111028 | 14 | 163 | 8.0 | 14.5 | 0.00 | 0.00 | 0.00 | 96 | 1005.1 |
| 20260505110528 | 15 | 193 | 6.4 | 14.5 | 0.00 | 0.00 | 0.00 | 96 | 1005.0 |
| 20260505102029 | 15 | 157 | 8.0 | 19.3 | 0.00 | 0.00 | 0.00 | 95 | 1005.3 |
| 20260505101532 | 15 | 194 | 11.3 | 20.9 | 0.00 | 0.00 | 0.00 | 95 | 1005.6 |
| 20260505101028 | 15 | 188 | 12.9 | 20.9 | 0.00 | 0.00 | 0.00 | 95 | 1005.2 |
| 20260505100529 | 15 | 202 | 6.4 | 12.9 | 0.00 | 0.00 | 0.00 | 95 | 1005.1 |
| 20260505100031 | 15 | 160 | 8.0 | 14.5 | 0.00 | 0.00 | 0.00 | 95 | 1005.1 |
| 20260505095528 | 15 | 168 | 6.4 | 14.5 | 0.00 | 0.00 | 0.00 | 95 | 1005.0 |
| 20260505095030 | 15 | 147 | 6.4 | 12.9 | 0.00 | 0.00 | 0.00 | 95 | 1005.1 |
| 20260505094528 | 15 | 155 | 6.4 | 12.9 | 0.00 | 0.00 | 0.00 | 95 | 1005.5 |
| 20260505094028 | 15 | 164 | 6.4 | 11.3 | 0.00 | 0.00 | 0.00 | 95 | 1005.6 |
| 20260505093531 | 15 | 166 | 6.4 | 9.7 | 0.00 | 0.00 | 0.00 | 95 | 1005.7 |
| 20260505093031 | 15 | 144 | 3.2 | 4.8 | 0.00 | 0.00 | 0.00 | 94 | 1005.7 |
| 20260505092529 | 15 | 133 | 0.0 | 4.8 | 0.00 | 0.00 | 0.00 | 94 | 1005.9 |
| 20260505092029 | 15 | 131 | 3.2 | 6.4 | 0.00 | 0.00 | 0.00 | 94 | 1006.0 |
| 20260505091530 | 15 | 134 | 4.8 | 6.4 | 0.00 | 0.00 | 0.00 | 94 | 1006.0 |
| 20260505091028 | 15 | 44 | 0.0 | 4.8 | 0.00 | 0.00 | 0.00 | 94 | 1006.0 |
| 20260505090531 | 15 | 36 | 1.6 | 3.2 | 0.00 | 0.00 | 0.00 | 94 | 1006.1 |
| 20260505090030 | 15 | 346 | 1.6 | 3.2 | 0.00 | 0.00 | 0.00 | 94 | 1006.2 |
| 20260505085528 | 15 | 202 | 0.0 | 6.4 | 0.00 | 0.00 | 0.00 | 94 | 1006.7 |
| 20260505085030 | 15 | 275 | 3.2 | 6.4 | 0.00 | 0.00 | 0.00 | 93 | 1007.0 |
| 20260505084530 | 15 | 257 | 3.2 | 6.4 | 0.00 | 0.00 | 0.00 | 93 | 1006.8 |
| 20260505084030 | 15 | 261 | 6.4 | 6.4 | 0.00 | 0.00 | 0.00 | 93 | 1006.7 |
| 20260505083528 | 15 | 117 | 3.2 | 8.0 | 0.00 | 0.00 | 0.00 | 93 | 1005.8 |
| 20260505083029 | 15 | 175 | 1.6 | 6.4 | 0.00 | 0.00 | 0.00 | 92 | 1006.3 |
| 20260505082528 | 15 | 219 | 3.2 | 4.8 | 0.00 | 0.00 | 0.00 | 92 | 1006.2 |
| 20260505082030 | 15 | 328 | 0.0 | 3.2 | 0.00 | 0.00 | 0.00 | 92 | 1006.1 |
| 20260505081530 | 15 | 0 | 0.0 | 8.0 | 0.00 | 0.00 | 0.00 | 92 | 1006.1 |
| 20260505081028 | 15 | 227 | 6.4 | 9.7 | 0.00 | 0.00 | 0.00 | 91 | 1006.7 |
| 20260505080529 | 15 | 231 | 3.2 | 9.7 | 0.00 | 0.00 | 0.00 | 90 | 1006.7 |
| 20260505080030 | 15 | 214 | 6.4 | 11.3 | 0.00 | 0.00 | 0.00 | 90 | 1007.1 |
| 20260505075528 | 15 | 256 | 9.7 | 14.5 | 0.00 | 0.00 | 0.00 | 90 | 1007.1 |
| 20260505075029 | 15 | 245 | 6.4 | 16.1 | 0.00 | 0.00 | 0.00 | 90 | 1007.0 |
| 20260505074529 | 15 | 260 | 8.0 | 12.9 | 0.00 | 0.00 | 0.00 | 90 | 1006.9 |
| 20260505074031 | 15 | 256 | 6.4 | 8.0 | 0.00 | 0.00 | 0.00 | 89 | 1006.8 |
| 20260505073531 | 15 | 288 | 4.8 | 9.7 | 0.00 | 0.00 | 0.00 | 88 | 1007.0 |
| 20260505073028 | 15 | 250 | 6.4 | 12.9 | 0.00 | 0.00 | 0.00 | 87 | 1006.7 |
| 20260505072530 | 15 | 230 | 11.3 | 19.3 | 0.00 | 0.00 | 0.00 | 87 | 1006.9 |
| 20260505072030 | 15 | 234 | 9.7 | 16.1 | 0.00 | 0.00 | 0.00 | 86 | 1006.8 |
| 20260505071529 | 16 | 208 | 12.9 | 22.5 | 0.00 | 0.00 | 0.00 | 86 | 1006.9 |
| 20260505071036 | 16 | 208 | 14.5 | 20.9 | 0.00 | 0.00 | 0.00 | 85 | 1006.6 |
| 20260505070529 | 16 | 217 | 8.0 | 17.7 | 0.00 | 0.00 | 0.00 | 85 | 1006.5 |
| 20260505070030 | 16 | 211 | 9.7 | 19.3 | 0.00 | 0.00 | 0.00 | 83 | 1006.6 |
| 20260505065531 | 16 | 214 | 11.3 | 14.5 | 0.00 | 0.00 | 0.00 | 82 | 1006.5 |
| 20260505065028 | 16 | 210 | 11.3 | 22.5 | 0.00 | 0.00 | 0.00 | 81 | 1006.4 |
| 20260505064529 | 16 | 211 | 16.1 | 22.5 | 0.00 | 0.00 | 0.00 | 79 | 1006.2 |
| 20260505064030 | 16 | 204 | 17.7 | 22.5 | 0.00 | 0.00 | 0.00 | 79 | 1006.1 |
| 20260505063528 | 17 | 193 | 14.5 | 24.1 | 0.00 | 0.00 | 0.00 | 78 | 1005.9 |
| 20260505063030 | 17 | 196 | 11.3 | 19.3 | 0.00 | 0.00 | 0.00 | 76 | 1006.0 |
| 20260505062529 | 17 | 192 | 9.7 | 17.7 | 0.00 | 0.00 | 0.00 | 74 | 1006.1 |
| 20260505062030 | 17 | 174 | 11.3 | 16.1 | 0.00 | 0.00 | 0.00 | 74 | 1006.1 |
| 20260505061530 | 17 | 187 | 9.7 | 14.5 | 0.00 | 0.00 | 0.00 | 73 | 1006.1 |
| 20260505061029 | 17 | 152 | 4.8 | 12.9 | 0.00 | 0.00 | 0.00 | 72 | 1006.3 |
| 20260505060530 | 17 | 177 | 4.8 | 14.5 | 0.00 | 0.00 | 0.00 | 72 | 1006.4 |
| 20260505060030 | 17 | 206 | 4.8 | 16.1 | 0.00 | 0.00 | 0.00 | 71 | 1006.5 |
| 20260505055529 | 17 | 177 | 6.4 | 12.9 | 0.00 | 0.00 | 0.00 | 71 | 1006.6 |
| 20260505055028 | 17 | 165 | 8.0 | 14.5 | 0.00 | 0.00 | 0.00 | 71 | 1006.6 |
| 20260505054529 | 17 | 146 | 4.8 | 11.3 | 0.00 | 0.00 | 0.00 | 71 | 1006.6 |
| 20260505054029 | 18 | 178 | 3.2 | 11.3 | 0.00 | 0.00 | 0.00 | 71 | 1006.5 |
| 20260505053531 | 18 | 142 | 4.8 | 11.3 | 0.00 | 0.00 | 0.00 | 70 | 1006.6 |
| 20260505053031 | 18 | 162 | 4.8 | 12.9 | 0.00 | 0.00 | 0.00 | 70 | 1006.5 |
| 20260505052529 | 18 | 204 | 1.6 | 11.3 | 0.00 | 0.00 | 0.00 | 70 | 1006.6 |
| 20260505052029 | 18 | 136 | 4.8 | 8.0 | 0.00 | 0.00 | 0.00 | 70 | 1006.3 |
| 20260505051528 | 18 | 147 | 3.2 | 11.3 | 0.00 | 0.00 | 0.00 | 70 | 1006.2 |
| 20260505051029 | 18 | 39 | 1.6 | 9.7 | 0.00 | 0.00 | 0.00 | 70 | 1006.2 |
| 20260505050528 | 18 | 154 | 0.0 | 8.0 | 0.00 | 0.00 | 0.00 | 70 | 1006.3 |
| 20260505041528 | 18 | 171 | 4.8 | 12.9 | 0.00 | 0.00 | 0.00 | 68 | 1006.7 |
| 20260505041029 | 18 | 149 | 4.8 | 9.7 | 0.00 | 0.00 | 0.00 | 68 | 1006.8 |
| 20260505040528 | 18 | 159 | 3.2 | 14.5 | 0.00 | 0.00 | 0.00 | 68 | 1007.0 |
| 20260505040028 | 18 | 173 | 6.4 | 14.5 | 0.00 | 0.00 | 0.00 | 68 | 1007.1 |
| 20260505035530 | 18 | 198 | 8.0 | 14.5 | 0.00 | 0.00 | 0.00 | 67 | 1007.1 |
| 20260505035029 | 18 | 206 | 6.4 | 8.0 | 0.00 | 0.00 | 0.00 | 67 | 1007.1 |
| 20260505034528 | 19 | 185 | 3.2 | 11.3 | 0.00 | 0.00 | 0.00 | 66 | 1007.2 |
| 20260505034028 | 19 | 136 | 4.8 | 12.9 | 0.00 | 0.00 | 0.00 | 66 | 1007.2 |
| 20260505033528 | 19 | 144 | 8.0 | 16.1 | 0.00 | 0.00 | 0.00 | 66 | 1007.1 |
| 20260505033028 | 19 | 153 | 9.7 | 16.1 | 0.00 | 0.00 | 0.00 | 66 | 1007.2 |
| 20260505032528 | 19 | 157 | 9.7 | 14.5 | 0.00 | 0.00 | 0.00 | 66 | 1007.2 |
| 20260505032030 | 19 | 170 | 6.4 | 12.9 | 0.00 | 0.00 | 0.00 | 65 | 1007.2 |
| 20260505031529 | 19 | 162 | 6.4 | 11.3 | 0.00 | 0.00 | 0.00 | 65 | 1007.4 |
| 20260505031028 | 19 | 166 | 4.8 | 11.3 | 0.00 | 0.00 | 0.00 | 65 | 1007.3 |
| 20260505030529 | 19 | 172 | 6.4 | 9.7 | 0.00 | 0.00 | 0.00 | 65 | 1007.3 |
| 20260505030028 | 19 | 198 | 3.2 | 9.7 | 0.00 | 0.00 | 0.00 | 65 | 1007.2 |
| 20260505025528 | 19 | 166 | 4.8 | 9.7 | 0.00 | 0.00 | 0.00 | 65 | 1007.2 |
| 20260505025029 | 19 | 184 | 4.8 | 11.3 | 0.00 | 0.00 | 0.00 | 65 | 1007.3 |
| 20260505024528 | 19 | 145 | 8.0 | 11.3 | 0.00 | 0.00 | 0.00 | 64 | 1007.3 |
| 20260505024028 | 19 | 194 | 4.8 | 12.9 | 0.00 | 0.00 | 0.00 | 65 | 1007.2 |
| 20260505023528 | 20 | 179 | 6.4 | 9.7 | 0.00 | 0.00 | 0.00 | 64 | 1007.1 |
| 20260505023028 | 20 | 195 | 6.4 | 9.7 | 0.00 | 0.00 | 0.00 | 64 | 1007.2 |
| 20260505022528 | 20 | 179 | 6.4 | 11.3 | 0.00 | 0.00 | 0.00 | 64 | 1007.2 |
| 20260505022029 | 20 | 191 | 6.4 | 9.7 | 0.00 | 0.00 | 0.00 | 64 | 1007.1 |
| 20260505021531 | 20 | 190 | 4.8 | 9.7 | 0.00 | 0.00 | 0.00 | 63 | 1007.0 |
| 20260505021029 | 20 | 172 | 1.6 | 9.7 | 0.00 | 0.00 | 0.00 | 63 | 1007.0 |
| 20260505020529 | 20 | 191 | 4.8 | 11.3 | 0.00 | 0.00 | 0.00 | 63 | 1006.9 |
| 20260505020030 | 20 | 188 | 6.4 | 11.3 | 0.00 | 0.00 | 0.00 | 62 | 1006.8 |
| 20260505015528 | 20 | 203 | 8.0 | 14.5 | 0.00 | 0.00 | 0.00 | 62 | 1006.8 |
| 20260505015028 | 21 | 179 | 8.0 | 17.7 | 0.00 | 0.00 | 0.00 | 61 | 1006.6 |
| 20260505014529 | 21 | 207 | 11.3 | 20.9 | 0.00 | 0.00 | 0.00 | 61 | 1006.4 |
| 20260505014029 | 21 | 208 | 11.3 | 19.3 | 0.00 | 0.00 | 0.00 | 61 | 1006.4 |
| 20260505013529 | 21 | 201 | 14.5 | 27.4 | 0.00 | 0.00 | 0.00 | 60 | 1006.3 |
| 20260505013029 | 21 | 203 | 9.7 | 19.3 | 0.00 | 0.00 | 0.00 | 61 | 1006.4 |
| 20260505012531 | 21 | 202 | 8.0 | 20.9 | 0.00 | 0.00 | 0.00 | 61 | 1006.3 |
| 20260505012028 | 21 | 203 | 14.5 | 20.9 | 0.00 | 0.00 | 0.00 | 60 | 1006.3 |
| 20260505011528 | 21 | 192 | 14.5 | 19.3 | 0.00 | 0.00 | 0.00 | 60 | 1006.2 |
| 20260505011028 | 21 | 202 | 14.5 | 17.7 | 0.00 | 0.00 | 0.00 | 60 | 1006.2 |
| 20260505010529 | 21 | 199 | 12.9 | 20.9 | 0.00 | 0.00 | 0.00 | 60 | 1006.0 |
| 20260505010031 | 21 | 177 | 9.7 | 20.9 | 0.00 | 0.00 | 0.00 | 60 | 1006.0 |
| 20260505005529 | 22 | 210 | 11.3 | 20.9 | 0.00 | 0.00 | 0.00 | 59 | 1005.9 |
| 20260505005029 | 22 | 215 | 12.9 | 24.1 | 0.00 | 0.00 | 0.00 | 58 | 1005.9 |
| 20260505004529 | 22 | 195 | 14.5 | 20.9 | 0.00 | 0.00 | 0.00 | 58 | 1005.7 |
| 20260505004030 | 22 | 211 | 16.1 | 19.3 | 0.00 | 0.00 | 0.00 | 57 | 1005.7 |
| 20260505003528 | 22 | 204 | 12.9 | 16.1 | 0.00 | 0.00 | 0.00 | 57 | 1005.7 |
| 20260505003028 | 22 | 185 | 11.3 | 16.1 | 0.00 | 0.00 | 0.00 | 57 | 1005.7 |
| 20260505002528 | 22 | 196 | 9.7 | 24.1 | 0.00 | 0.00 | 0.00 | 57 | 1005.6 |
| 20260505002028 | 22 | 194 | 12.9 | 20.9 | 0.00 | 0.00 | 0.00 | 57 | 1005.6 |
| 20260505001529 | 22 | 189 | 9.7 | 22.5 | 0.00 | 0.00 | 0.00 | 56 | 1005.5 |
| 20260505001028 | 22 | 179 | 12.9 | 22.5 | 0.00 | 0.00 | 0.00 | 56 | 1005.6 |
| 20260505000529 | 22 | 189 | 12.9 | 22.5 | 0.00 | 0.00 | 0.00 | 56 | 1005.6 |
| 20260505000029 | 23 | 172 | 11.3 | 22.5 | 0.00 | 0.00 | 0.00 | 55 | 1005.6 |
| 20260504235528 | 23 | 192 | 14.5 | 22.5 | 0.00 | 0.00 | 0.00 | 55 | 1005.6 |
| 20260504235028 | 23 | 169 | 14.5 | 27.4 | 0.00 | 0.00 | 0.00 | 54 | 1005.5 |
| 20260504234529 | 23 | 193 | 12.9 | 25.7 | 0.00 | 0.00 | 0.00 | 54 | 1005.3 |
| 20260504234028 | 23 | 180 | 17.7 | 24.1 | 0.00 | 0.00 | 0.00 | 54 | 1005.5 |
| 20260504233528 | 23 | 195 | 16.1 | 25.7 | 0.00 | 0.00 | 0.00 | 54 | 1005.5 |
| 20260504233028 | 23 | 209 | 14.5 | 27.4 | 0.00 | 0.00 | 0.00 | 54 | 1005.5 |
| 20260504232528 | 23 | 181 | 12.9 | 20.9 | 0.00 | 0.00 | 0.00 | 54 | 1005.6 |
| 20260504232030 | 23 | 193 | 11.3 | 20.9 | 0.00 | 0.00 | 0.00 | 54 | 1005.6 |
| 20260504231528 | 23 | 185 | 14.5 | 19.3 | 0.00 | 0.00 | 0.00 | 53 | 1005.7 |
| 20260504231029 | 23 | 159 | 12.9 | 24.1 | 0.00 | 0.00 | 0.00 | 52 | 1005.6 |
| 20260504230529 | 23 | 204 | 14.5 | 24.1 | 0.00 | 0.00 | 0.00 | 52 | 1005.6 |
| 20260504230029 | 23 | 210 | 17.7 | 30.6 | 0.00 | 0.00 | 0.00 | 52 | 1005.6 |
| 20260504225529 | 23 | 198 | 24.1 | 30.6 | 0.00 | 0.00 | 0.00 | 51 | 1005.6 |
| 20260504225030 | 24 | 173 | 12.9 | 24.1 | 0.00 | 0.00 | 0.00 | 51 | 1005.5 |
| 20260504224528 | 24 | 192 | 20.9 | 29.0 | 0.00 | 0.00 | 0.00 | 52 | 1005.6 |
| 20260504224029 | 24 | 194 | 17.7 | 30.6 | 0.00 | 0.00 | 0.00 | 52 | 1005.7 |
| 20260504223529 | 24 | 185 | 14.5 | 29.0 | 0.00 | 0.00 | 0.00 | 52 | 1005.8 |
| 20260504223029 | 24 | 197 | 14.5 | 27.4 | 0.00 | 0.00 | 0.00 | 51 | 1005.6 |
| 20260504222529 | 24 | 195 | 16.1 | 24.1 | 0.00 | 0.00 | 0.00 | 51 | 1005.9 |
| 20260504222029 | 24 | 173 | 11.3 | 24.1 | 0.00 | 0.00 | 0.00 | 52 | 1005.9 |
| 20260504221530 | 24 | 187 | 12.9 | 30.6 | 0.00 | 0.00 | 0.00 | 50 | 1006.0 |
| 20260504221028 | 24 | 207 | 16.1 | 35.4 | 0.00 | 0.00 | 0.00 | 50 | 1005.9 |
| 20260504220531 | 24 | 198 | 25.7 | 35.4 | 0.00 | 0.00 | 0.00 | 49 | 1005.8 |
| 20260504220030 | 25 | 179 | 20.9 | 32.2 | 0.00 | 0.00 | 0.00 | 50 | 1005.8 |
| 20260504215528 | 25 | 194 | 14.5 | 22.5 | 0.00 | 0.00 | 0.00 | 50 | 1006.0 |
| 20260504215030 | 25 | 192 | 11.3 | 32.2 | 0.00 | 0.00 | 0.00 | 51 | 1006.2 |
| 20260504214529 | 25 | 202 | 19.3 | 27.4 | 0.00 | 0.00 | 0.00 | 50 | 1005.8 |
| 20260504214028 | 25 | 174 | 14.5 | 30.6 | 0.00 | 0.00 | 0.00 | 49 | 1006.0 |
| 20260504213528 | 25 | 201 | 17.7 | 30.6 | 0.00 | 0.00 | 0.00 | 49 | 1006.1 |
| 20260504213030 | 25 | 197 | 16.1 | 41.8 | 0.00 | 0.00 | 0.00 | 49 | 1006.0 |
| 20260504212529 | 25 | 200 | 27.4 | 41.8 | 0.00 | 0.00 | 0.00 | 49 | 1005.9 |
| 20260504212029 | 25 | 191 | 20.9 | 32.2 | 0.00 | 0.00 | 0.00 | 49 | 1005.9 |
| 20260504211528 | 25 | 193 | 16.1 | 27.4 | 0.00 | 0.00 | 0.00 | 49 | 1006.1 |
| 20260504211030 | 25 | 199 | 16.1 | 35.4 | 0.00 | 0.00 | 0.00 | 49 | 1006.3 |
| 20260504210530 | 25 | 194 | 17.7 | 38.6 | 0.00 | 0.00 | 0.00 | 50 | 1006.3 |
| 20260504210031 | 25 | 196 | 22.5 | 38.6 | 0.00 | 0.00 | 0.00 | 50 | 1006.0 |
| 20260504205528 | 25 | 187 | 24.1 | 37.0 | 0.00 | 0.00 | 0.00 | 49 | 1006.4 |
| 20260504204538 | 25 | 193 | 14.5 | 43.5 | 0.00 | 0.00 | 0.00 | 50 | 1006.5 |
| 20260504204028 | 25 | 209 | 29.0 | 43.5 | 0.00 | 0.00 | 0.00 | 49 | 1006.4 |
| 20260504203529 | 25 | 194 | 20.9 | 37.0 | 0.00 | 0.00 | 0.00 | 50 | 1006.5 |
| 20260504203029 | 25 | 202 | 25.7 | 37.0 | 0.00 | 0.00 | 0.00 | 49 | 1006.6 |
| 20260504202530 | 25 | 193 | 17.7 | 35.4 | 0.00 | 0.00 | 0.00 | 50 | 1006.6 |
| 20260504202029 | 25 | 213 | 17.7 | 37.0 | 0.00 | 0.00 | 0.00 | 50 | 1006.6 |
| 20260504201528 | 24 | 196 | 20.9 | 35.4 | 0.00 | 0.00 | 0.00 | 51 | 1006.7 |
| 20260504201028 | 24 | 187 | 20.9 | 45.1 | 0.00 | 0.00 | 0.00 | 51 | 1006.5 |
| 20260504200529 | 25 | 189 | 22.5 | 38.6 | 0.00 | 0.00 | 0.00 | 51 | 1006.6 |
| 20260504200030 | 25 | 188 | 22.5 | 38.6 | 0.00 | 0.00 | 0.00 | 50 | 1006.9 |
| 20260504195530 | 24 | 216 | 20.9 | 43.5 | 0.00 | 0.00 | 0.00 | 51 | 1006.7 |
| 20260504195030 | 25 | 197 | 17.7 | 38.6 | 0.00 | 0.00 | 0.00 | 51 | 1006.7 |
| 20260504194530 | 25 | 204 | 24.1 | 37.0 | 0.00 | 0.00 | 0.00 | 50 | 1006.7 |
| 20260504194028 | 24 | 188 | 30.6 | 37.0 | 0.00 | 0.00 | 0.00 | 51 | 1006.8 |
| 20260504193530 | 25 | 200 | 22.5 | 43.5 | 0.00 | 0.00 | 0.00 | 50 | 1006.8 |
| 20260504193028 | 24 | 191 | 29.0 | 43.5 | 0.00 | 0.00 | 0.00 | 51 | 1006.9 |
| 20260504192530 | 24 | 201 | 24.1 | 43.5 | 0.00 | 0.00 | 0.00 | 51 | 1006.9 |
| 20260504192030 | 24 | 196 | 20.9 | 33.8 | 0.00 | 0.00 | 0.00 | 51 | 1006.9 |
| 20260504191529 | 24 | 199 | 16.1 | 46.7 | 0.00 | 0.00 | 0.00 | 52 | 1007.0 |
| 20260504191029 | 24 | 194 | 24.1 | 49.9 | 0.00 | 0.00 | 0.00 | 51 | 1006.7 |
| 20260504190528 | 23 | 196 | 27.4 | 45.1 | 0.00 | 0.00 | 0.00 | 52 | 1007.2 |
| 20260504190028 | 23 | 210 | 27.4 | 48.3 | 0.00 | 0.00 | 0.00 | 52 | 1007.1 |
| 20260504185529 | 23 | 189 | 27.4 | 51.5 | 0.00 | 0.00 | 0.00 | 52 | 1007.1 |
| 20260504185029 | 23 | 194 | 25.7 | 51.5 | 0.00 | 0.00 | 0.00 | 52 | 1007.3 |
| 20260504184528 | 23 | 188 | 27.4 | 48.3 | 0.00 | 0.00 | 0.00 | 51 | 1007.1 |
| 20260504184030 | 23 | 191 | 30.6 | 46.7 | 0.00 | 0.00 | 0.00 | 52 | 1006.8 |
| 20260504183529 | 23 | 189 | 25.7 | 38.6 | 0.00 | 0.00 | 0.00 | 52 | 1006.9 |
| 20260504183028 | 23 | 200 | 27.4 | 41.8 | 0.00 | 0.00 | 0.00 | 52 | 1007.1 |
| 20260504182530 | 23 | 202 | 30.6 | 41.8 | 0.00 | 0.00 | 0.00 | 52 | 1007.1 |
| 20260504182028 | 23 | 193 | 24.1 | 37.0 | 0.00 | 0.00 | 0.00 | 52 | 1007.5 |
| 20260504181530 | 23 | 219 | 24.1 | 45.1 | 0.00 | 0.00 | 0.00 | 52 | 1007.5 |
| 20260504181029 | 23 | 200 | 37.0 | 45.1 | 0.00 | 0.00 | 0.00 | 52 | 1007.5 |
| 20260504180529 | 23 | 186 | 30.6 | 46.7 | 0.00 | 0.00 | 0.00 | 53 | 1007.9 |
| 20260504180030 | 23 | 204 | 32.2 | 46.7 | 0.00 | 0.00 | 0.00 | 52 | 1007.7 |
| 20260504175529 | 23 | 195 | 27.4 | 40.2 | 0.00 | 0.00 | 0.00 | 52 | 1007.2 |
| 20260504175028 | 23 | 194 | 25.7 | 43.5 | 0.00 | 0.00 | 0.00 | 52 | 1007.7 |
| 20260504174530 | 23 | 193 | 30.6 | 43.5 | 0.00 | 0.00 | 0.00 | 52 | 1007.7 |
| 20260504174028 | 23 | 179 | 20.9 | 45.1 | 0.00 | 0.00 | 0.00 | 53 | 1008.1 |
| 20260504173529 | 23 | 190 | 25.7 | 38.6 | 0.00 | 0.00 | 0.00 | 52 | 1008.2 |
| 20260504173031 | 23 | 197 | 16.1 | 37.0 | 0.00 | 0.00 | 0.00 | 53 | 1008.2 |
| 20260504172528 | 23 | 201 | 29.0 | 40.2 | 0.00 | 0.00 | 0.00 | 52 | 1008.0 |
| 20260504172029 | 23 | 193 | 29.0 | 40.2 | 0.00 | 0.00 | 0.00 | 52 | 1007.9 |
| 20260504171536 | 23 | 212 | 20.9 | 33.8 | 0.00 | 0.00 | 0.00 | 52 | 1008.1 |
| 20260504171031 | 23 | 209 | 16.1 | 35.4 | 0.00 | 0.00 | 0.00 | 52 | 1008.2 |
| 20260504170530 | 22 | 189 | 17.7 | 40.2 | 0.00 | 0.00 | 0.00 | 53 | 1008.0 |
| 20260504151030 | 21 | 198 | 30.6 | 46.7 | 0.00 | 0.00 | 0.00 | 54 | 1008.7 |
| 20260504150530 | 20 | 214 | 20.9 | 37.0 | 0.00 | 0.00 | 0.00 | 54 | 1009.1 |